Theta_e
325 320 320 318 306 303 296 297 300 301 301 304 304 303 302 304 302 300 319 329 330 344 350 352 353 354 353 353 353 353 353 352 352 350 349 348 347 345 344 343 342 341 340 339 337 336 336 337 339
318 319 318 313 299 294 294 299 300 302 304 304 303 303 303 302 312 316 319 330 332 344 348 350 349 353 352 352 352 352 351 350 349 350 348 347 346 345 344 342 341 340 339 338 336 333 331 333 337
320 318 310 305 299 294 294 299 300 303 302 302 301 305 305 306 315 317 322 330 333 340 347 349 349 350 352 352 350 351 350 350 349 349 348 347 346 345 342 341 339 338 337 336 334 330 329 329 333
315 314 309 299 296 297 299 300 302 302 303 303 302 300 308 318 317 321 328 331 334 340 348 346 349 350 350 350 349 348 349 348 348 348 348 347 347 344 341 339 338 337 334 334 332 328 326 327 331
313 310 301 296 296 297 300 302 301 302 301 301 300 301 304 315 323 326 327 330 332 337 346 347 348 349 349 349 349 348 347 348 347 347 348 345 343 342 340 339 337 335 334 333 330 326 323 325 327
308 306 297 294 296 298 300 301 300 300 302 299 300 302 303 312 319 321 327 328 333 337 343 347 341 342 345 347 348 346 348 348 347 347 346 345 343 342 339 337 336 335 334 332 329 326 321 321 321
305 301 296 297 297 298 300 302 298 299 299 300 303 300 302 305 316 321 324 330 332 336 338 341 345 343 337 340 342 343 344 345 345 345 344 343 342 340 339 338 337 335 334 332 329 326 321 317 317
306 300 294 292 295 296 301 301 302 301 299 304 304 298 297 300 308 316 316 315 316 317 319 324 334 339 342 343 336 338 339 341 342 341 339 336 335 335 334 333 336 335 333 331 329 326 320 313 312
307 296 293 294 296 298 302 299 301 302 300 302 303 300 302 304 308 313 310 310 310 311 310 313 317 334 337 339 337 335 336 337 337 336 332 329 332 332 332 330 334 336 334 332 329 325 320 313 313
301 297 296 299 299 298 302 300 301 298 300 299 300 303 305 305 305 305 304 303 304 305 307 309 310 313 328 335 338 341 340 338 337 338 334 336 335 334 329 325 328 331 331 331 327 324 322 319 308
301 296 298 299 303 303 302 299 301 298 297 298 299 300 302 303 302 303 302 303 302 304 308 310 311 312 312 330 336 339 337 336 336 336 336 335 332 330 328 325 326 325 324 325 325 322 319 314 310
297 301 300 303 303 302 300 302 298 299 297 302 300 301 301 301 300 300 301 302 303 305 308 312 314 314 312 320 335 336 333 333 332 333 334 333 332 330 328 327 326 326 325 323 319 319 319 315 312
299 301 302 303 302 301 303 299 299 298 299 301 301 301 299 299 300 300 301 303 303 305 309 310 313 315 315 314 335 331 328 328 329 328 329 330 328 329 329 328 327 326 325 324 320 316 316 316 315
301 302 301 302 302 302 299 299 298 298 300 299 300 298 297 298 297 298 299 301 304 307 306 310 315 317 316 324 326 324 321 319 319 321 323 326 326 325 323 321 321 319 319 318 315 311 312 313 314
301 297 300 300 301 299 300 296 295 298 299 298 298 296 297 297 297 296 298 301 304 303 306 311 317 316 315 315 316 316 316 315 314 315 317 319 320 318 316 315 315 315 315 313 312 312 312 312 311
297 296 292 299 300 298 297 292 298 298 297 296 297 295 297 296 296 297 299 302 301 302 306 311 311 309 308 309 310 310 310 310 311 312 313 313 313 314 313 311 311 310 310 309 307 306 309 308 308
296 290 293 294 299 297 295 293 296 298 297 296 296 296 296 295 295 296 298 301 300 303 306 308 307 305 304 304 304 305 306 307 307 307 307 308 310 309 308 306 307 306 305 305 304 302 302 301 300
291 291 294 293 295 296 293 293 295 296 296 295 296 295 294 294 294 296 298 299 302 303 304 306 306 304 304 303 302 302 301 300 300 299 300 302 303 304 303 303 302 302 301 300 300 302 303 299 297
296 294 292 295 296 294 294 294 296 296 295 295 295 294 294 294 294 296 299 300 301 302 303 305 304 305 305 303 301 298 295 294 293 294 294 295 296 298 297 296 297 296 295 294 296 296 298 296 298
295 293 292 296 296 293 293 293 297 296 295 296 295 294 293 292 292 295 297 300 300 301 303 304 306 306 305 302 299 296 292 291 291 291 291 292 292 292 292 291 291 291 290 289 289 289 293 292 294
294 292 292 292 293 293 290 289 293 297 296 297 297 296 294 292 292 293 295 298 299 300 301 302 302 300 298 296 295 293 292 290 289 288 288 289 290 290 290 290 289 289 289 287 287 287 286 286 287
290 296 295 293 289 284 291 283 292 295 293 293 294 292 291 292 293 293 293 295 296 296 298 299 298 297 296 295 293 292 289 286 286 287 288 288 289 288 289 288 288 287 287 286 286 287 286 285 284
292 295 292 291 288 287 287 285 289 294 290 292 293 292 291 292 292 291 291 292 291 292 291 292 293 293 293 292 291 289 287 287 288 287 287 287 287 287 287 286 285 286 286 285 285 284 284 284 283
296 292 290 289 288 281 288 288 288 292 292 293 293 292 292 291 290 289 289 290 289 289 289 289 289 289 290 290 289 288 287 287 287 287 285 285 285 285 285 285 284 284 284 284 284 283 283 282 282
294 289 283 280 279 280 287 286 291 292 291 293 292 291 291 291 289 287 287 287 287 287 287 288 287 288 289 289 288 288 288 287 286 286 285 284 283 282 282 283 282 282 282 283 283 282 281 281 280
289 290 283 276 279 281 282 281 288 290 291 293 294 293 292 290 289 287 286 286 286 286 286 286 286 286 286 286 287 287 287 286 285 285 284 283 282 282 282 282 282 282 282 282 282 281 280 280 280
289 286 294 285 277 277 284 287 291 290 289 290 291 291 290 289 288 286 286 286 286 285 284 285 285 285 286 286 286 286 285 285 284 283 283 282 282 283 282 281 281 281 281 280 281 279 279 279 279
291 294 284 285 277 276 282 284 286 285 287 289 290 290 291 289 288 287 287 286 285 285 285 285 285 285 285 286 285 285 284 284 283 283 282 281 281 281 281 280 280 280 279 279 279 278 278 277 277
287 286 288 289 285 280 277 284 292 293 291 288 291 291 291 289 289 288 288 286 286 285 284 284 284 284 284 285 285 284 284 284 283 282 281 281 281 280 280 280 279 279 278 277 277 276 277 276 276
292 290 290 286 282 285 284 286 290 291 293 291 291 291 292 290 289 288 287 286 285 284 284 284 284 284 284 285 284 284 284 283 282 281 281 280 279 279 278 279 278 278 277 276 276 275 276 275 276
Wind_Speed
12 7 4 3 2 3 5 4 2 4 8 6 3 9 11 10 6 5 2 8 4 13 13 11 11 12 12 11 9 8 8 10 12 11 12 14 14 14 14 15 14 15 15 15 15 15 15 14 14
7 8 2 4 2 3 4 6 8 8 7 4 3 3 12 9 7 8 5 6 1 11 12 10 9 12 13 13 9 8 7 9 11 12 12 13 13 14 14 14 14 14 15 15 15 15 15 14 13
8 5 2 2 2 5 5 5 8 7 3 1 4 8 7 5 8 5 5 3 5 7 12 13 11 10 12 14 11 7 8 9 11 11 11 12 13 14 14 13 14 14 15 15 15 15 15 14 13
4 2 3 2 4 6 9 8 7 8 5 3 4 9 7 7 4 4 6 5 8 6 11 13 12 10 12 14 10 8 9 9 9 10 11 12 12 14 13 13 14 14 14 15 15 15 15 15 14
3 3 3 2 7 5 8 7 0 4 4 5 1 7 8 6 8 7 6 6 8 5 10 8 9 7 8 10 9 8 11 10 9 8 10 13 13 13 12 13 13 14 15 15 15 15 15 15 14
3 1 3 3 6 7 6 4 3 3 7 3 5 9 5 6 8 6 7 7 7 7 6 9 8 7 5 3 6 7 11 11 9 9 10 12 13 13 11 13 14 14 14 14 14 14 14 14 14
2 2 6 7 7 6 5 3 3 4 5 6 7 7 6 8 4 6 8 9 9 6 4 5 7 7 5 2 2 6 7 11 10 10 10 11 10 13 12 12 14 14 13 13 13 12 12 12 12
3 1 3 3 2 3 6 4 5 6 5 5 6 2 6 3 4 8 9 9 8 8 8 7 7 6 4 1 4 4 0 5 8 9 11 12 11 12 12 10 13 15 13 11 10 10 10 10 11
2 2 4 2 4 4 6 4 1 1 4 6 6 5 4 1 3 7 6 6 6 6 7 7 7 5 4 3 3 2 3 4 6 6 9 10 5 6 6 9 8 12 12 11 10 9 7 6 6
2 2 5 7 7 4 7 3 9 4 6 5 7 8 6 7 6 7 7 7 7 6 6 5 5 5 1 3 1 2 3 3 4 5 5 5 6 5 6 6 9 9 8 9 9 5 6 7 4
1 2 5 5 8 9 6 1 3 3 3 6 7 8 7 8 7 8 7 6 5 3 5 5 5 4 3 3 1 1 2 2 4 6 2 3 5 5 4 2 3 4 5 3 4 4 4 5 4
3 2 4 4 3 2 1 3 1 2 5 7 8 7 7 8 7 6 6 6 5 5 6 6 6 3 1 2 2 3 5 6 6 7 8 5 4 4 4 3 3 4 3 4 3 3 3 4 4
5 2 2 4 2 3 3 3 4 7 8 8 7 6 7 7 6 6 5 6 5 5 7 7 7 6 1 3 3 6 7 6 8 7 8 5 5 5 4 3 4 4 3 3 4 4 4 4 3
5 5 5 6 6 4 3 6 4 6 10 8 6 7 6 6 4 5 6 5 5 7 6 6 7 7 3 6 9 7 8 8 8 7 7 8 6 5 5 6 6 5 6 5 5 4 3 4 4
3 4 8 9 7 3 5 7 9 8 9 9 7 7 6 4 4 5 4 5 7 5 5 6 6 11 11 11 10 8 8 8 7 7 9 9 7 8 8 6 6 5 5 5 4 3 3 4 4
3 4 3 4 10 5 5 7 9 11 9 9 10 8 6 6 4 5 5 6 6 4 5 5 7 9 10 10 8 7 8 7 8 7 8 11 11 11 9 8 8 7 6 6 4 4 4 4 4
6 5 8 4 9 6 9 2 6 8 9 9 9 8 7 7 5 5 5 7 6 5 4 6 7 9 10 10 9 9 11 8 8 8 8 8 8 9 8 6 5 4 4 4 3 4 4 3 4
7 6 7 7 8 5 7 11 6 9 10 10 9 8 7 7 6 6 5 7 6 5 5 6 7 9 10 8 8 9 9 9 8 8 8 8 7 9 7 6 7 6 6 6 5 5 5 4 4
9 10 8 5 3 6 10 11 9 13 9 10 9 9 9 8 7 6 5 7 6 5 6 8 8 6 7 6 7 8 8 7 8 8 9 9 8 9 8 7 7 8 9 8 8 5 6 6 9
10 11 9 8 8 3 7 12 10 14 15 16 11 10 10 9 8 7 7 7 5 6 5 6 7 7 4 5 5 5 5 7 7 6 8 8 9 9 9 8 8 7 7 9 9 9 4 5 8
9 9 7 9 5 5 6 9 14 12 9 9 8 9 10 12 11 9 9 9 7 6 5 5 6 7 7 8 9 9 8 6 6 6 6 7 8 9 9 9 8 8 6 7 8 7 9 5 5
10 8 11 7 4 5 7 8 6 7 8 9 9 9 10 11 10 9 8 8 8 6 6 6 7 7 6 7 7 7 7 9 5 6 5 7 7 8 9 9 8 7 6 8 6 7 6 5 6
4 5 1 2 6 5 7 9 6 8 9 16 15 11 10 10 12 10 10 9 8 7 7 6 7 6 7 8 8 9 10 8 7 6 8 7 6 7 8 7 7 8 6 6 7 6 7 5 4
8 5 3 1 1 8 11 13 7 13 14 11 13 13 12 13 11 9 9 9 7 7 7 7 8 6 7 8 8 9 10 9 8 6 7 5 4 5 7 8 7 6 6 6 6 6 8 6 5
5 7 2 3 2 10 4 11 17 3 5 9 18 18 15 14 13 12 11 10 9 8 8 7 7 7 7 8 9 9 9 10 11 8 6 6 4 4 5 6 6 5 6 6 6 6 6 6 4
10 10 7 7 6 4 4 9 8 3 6 2 17 18 18 17 14 13 11 9 10 9 8 8 7 8 7 8 8 8 8 5 5 7 7 5 5 4 6 6 6 7 7 6 6 4 4 5 5
7 10 10 5 2 2 7 8 5 6 2 4 14 19 20 19 16 15 13 10 10 9 9 9 8 7 7 7 7 7 7 7 8 8 8 6 6 5 6 6 6 6 6 6 6 4 4 5 3
5 5 4 2 4 8 6 11 12 7 11 9 17 22 20 18 17 15 14 13 10 9 8 9 8 9 8 8 7 6 7 7 7 7 8 8 6 6 6 6 6 5 6 5 5 4 3 4 3
5 4 5 6 5 4 4 11 6 17 18 19 18 20 21 22 20 18 15 12 12 10 9 8 8 10 9 8 7 8 7 7 7 7 7 7 6 6 6 6 5 4 4 4 4 2 4 4 3
5 7 11 6 7 8 4 19 4 5 13 16 17 17 17 18 17 16 14 13 13 12 10 10 8 10 8 8 7 7 8 7 7 7 7 7 7 6 6 5 5 4 3 3 3 3 2 2 3
Wind_Direction
300 269 303 319 338 149 125 60 73 95 92 72 52 68 83 48 33 99 135 72 344 128 127 145 143 139 132 123 118 118 129 127 118 112 109 102 98 90 84 78 70 65 61 55 52 49 45 42 41
311 311 264 278 252 139 87 140 85 71 82 99 139 131 85 68 73 99 83 65 14 120 136 140 145 149 148 132 128 129 126 115 109 109 110 108 104 95 86 77 68 62 57 55 48 46 43 41 40
268 283 313 261 297 32 116 102 104 101 108 213 114 43 48 10 28 77 76 77 148 119 146 139 154 163 156 135 138 142 121 109 113 117 119 113 113 103 90 81 71 62 54 50 47 47 46 43 42
322 207 270 283 86 18 100 82 97 118 104 320 57 89 85 25 62 66 68 70 94 138 104 136 149 179 155 134 146 157 137 123 121 121 119 105 113 108 100 89 79 70 62 56 49 47 44 42 44
235 270 281 266 65 85 53 69 268 102 91 129 10 80 88 62 56 95 85 60 106 129 111 125 110 120 138 139 162 183 146 134 131 121 120 117 114 109 101 89 81 74 69 60 53 49 46 45 42
299 229 288 199 129 99 94 90 160 142 102 114 119 98 74 43 58 44 68 46 87 79 78 121 102 75 59 127 180 209 150 139 137 129 126 132 125 114 102 94 86 77 75 65 59 53 52 51 46
312 347 282 336 120 121 129 121 220 154 157 56 339 104 110 64 35 71 63 58 43 77 98 120 155 156 148 142 218 207 169 146 147 149 141 126 121 109 106 102 99 89 80 72 65 58 56 55 52
303 284 314 270 200 172 109 174 39 21 70 128 10 40 132 69 333 88 74 77 58 32 30 16 45 54 39 149 172 188 251 149 158 162 151 140 127 123 122 118 122 116 108 95 88 69 64 64 55
280 321 270 238 302 111 115 157 80 22 119 58 40 63 91 73 216 122 121 101 87 68 45 32 8 27 6 25 96 176 172 127 155 144 140 129 139 146 130 116 124 129 120 120 99 83 78 100 75
327 340 3 4 34 30 127 323 147 182 143 107 104 97 81 56 45 78 53 68 58 40 62 38 18 2 294 241 223 261 206 202 191 175 156 168 135 116 109 119 112 92 92 85 78 64 54 41 57
94 274 10 60 44 352 110 288 57 270 236 36 113 107 86 83 59 67 67 67 57 29 45 30 8 353 312 200 273 77 84 70 51 36 128 136 109 121 101 86 94 93 110 94 58 13 61 61 47
285 103 355 46 66 338 81 31 249 24 88 81 78 96 98 89 84 64 56 47 30 33 37 27 351 326 267 281 191 86 60 67 65 48 37 58 87 77 88 82 70 71 55 73 58 42 26 88 81
230 148 66 94 124 265 56 271 258 131 120 101 105 101 98 89 91 88 41 67 32 28 32 11 345 323 192 227 128 80 83 74 72 59 47 59 62 79 94 91 64 53 24 54 60 32 18 28 45
21 344 264 177 207 207 220 250 103 127 134 135 152 126 100 91 61 78 48 47 26 47 25 355 327 257 124 69 78 76 74 74 69 60 52 57 61 70 72 63 59 45 47 35 56 42 18 7 6
328 302 249 219 204 247 161 266 217 129 146 156 171 143 133 117 100 76 55 57 54 50 31 5 15 47 67 74 75 78 80 78 76 68 59 59 74 72 68 70 61 58 63 58 52 35 36 33 359
241 216 272 358 150 158 166 262 161 145 166 177 184 161 163 137 126 99 75 74 68 65 52 44 68 72 73 77 79 84 81 80 77 69 67 59 54 60 61 60 53 36 37 40 38 19 31 27 12
199 255 222 179 181 133 186 270 165 161 185 203 172 181 173 143 130 97 80 85 81 75 73 76 79 84 84 81 80 76 75 71 66 65 59 56 79 83 82 77 78 70 76 68 63 42 64 29 348
217 210 248 243 206 199 199 258 177 191 202 212 180 176 174 180 138 103 110 93 88 90 89 90 93 99 101 98 93 84 76 69 64 60 54 48 51 55 54 60 55 45 44 31 20 22 36 32 332
283 297 290 278 139 188 228 247 210 193 206 210 198 180 179 170 130 136 123 112 111 105 113 116 125 141 124 117 105 91 87 80 69 61 57 54 56 58 60 54 56 55 51 35 24 11 49 11 355
238 259 261 283 135 172 272 266 265 178 206 203 188 186 169 133 153 155 151 135 128 130 135 151 165 177 116 91 96 100 107 88 85 75 62 54 57 58 67 63 56 55 60 44 31 31 14 19 23
245 237 240 241 152 223 286 268 255 247 187 189 197 174 159 159 163 161 155 146 139 129 124 108 92 87 96 106 107 109 108 93 84 62 69 49 57 58 61 61 63 55 50 59 46 33 36 33 2
241 217 232 258 299 243 150 281 234 255 183 183 188 184 163 163 154 162 152 145 126 115 108 98 96 115 125 133 135 128 112 113 95 100 86 69 56 63 63 63 60 61 57 52 49 36 38 43 34
212 44 53 202 254 306 263 278 241 227 206 210 198 184 169 158 156 156 154 135 130 130 121 113 110 103 90 93 102 107 111 111 111 105 97 82 67 65 66 69 72 67 58 55 55 46 41 42 55
122 83 75 58 200 256 216 222 230 217 217 212 188 179 171 158 153 152 129 129 129 130 127 121 121 116 108 107 105 109 114 120 120 112 103 92 77 65 63 67 68 72 65 57 56 54 52 44 55
171 132 231 288 201 238 165 220 245 325 153 189 183 180 171 161 161 151 152 153 152 148 137 134 134 129 125 118 117 122 123 123 127 130 123 115 100 83 78 79 69 61 67 64 76 64 58 47 48
186 184 164 223 214 277 332 240 249 9 39 215 174 170 165 167 164 163 167 160 160 153 150 139 141 126 114 112 109 108 112 117 115 114 114 113 113 105 94 84 77 72 61 52 64 59 59 56 48
188 214 231 349 97 6 218 260 257 163 176 152 161 168 173 171 166 169 172 166 157 155 149 144 139 124 114 109 102 106 110 112 117 115 111 111 107 110 95 89 86 82 78 66 74 69 56 48 43
168 166 112 180 212 235 259 251 240 224 213 199 180 182 176 171 171 173 173 166 159 151 146 144 144 141 137 131 130 135 130 121 121 116 110 110 111 109 106 95 92 86 79 72 75 60 48 45 21
141 207 219 168 178 224 294 256 215 205 197 193 193 186 180 177 177 176 175 166 157 151 154 152 149 146 146 144 145 139 136 132 116 110 117 123 118 117 115 117 119 112 101 82 79 66 71 33 8
224 186 189 181 226 234 247 264 6 9 182 178 187 187 183 182 177 176 171 165 162 162 158 159 154 154 157 151 145 145 136 130 120 123 125 129 133 130 133 135 128 114 105 88 97 68 43 14 342